Watertown, NY

6:28 PM EST on December 14, 2017 (GMT -0500)
Watertown International

Weather History for KART - October, 2013

Change the Weather History Date:

Friday, October 18, 2013

  Actual Average Record
Temperature  
Mean Temperature 55 °F 47 °F  
Max Temperature 60 °F 57 °F 80 °F (1998)
Min Temperature 49 °F 38 °F 16 °F (1972)
Degree Days  
Heating Degree Days 10 18  
Month to date heating degree days 146 267  
Since 1 July heating degree days 420 541  
Cooling Degree Days 0 0  
Month to date cooling degree days 0 0  
Year to date cooling degree days 481 359  
Growing Degree Days 5 (Base 50)    
Moisture  
Dew Point 48 °F    
Average Humidity 76    
Maximum Humidity 100    
Minimum Humidity 51    
Precipitation  
Precipitation 0.17 in 0.11 in 1.24 in (1967)
Month to date precipitation 2.34 2.20  
Year to date precipitation 26.96 27.72  
Sea Level Pressure  
Sea Level Pressure 29.75 in    
Wind  
Wind Speed 11 mph (WSW)    
Max Wind Speed 26 mph    
Max Gust Speed 35 mph    
Visibility 8 miles    
Events Rain    
T = Trace of Precipitation, MM = Missing Value Source: NWS Daily Summary

Daily Weather History Graph

Daily Weather History Graph

Search for Another Location

Airport or City:

Trip Planner

Search our weather history database for the weather conditions in past years. The results will help you decide how hot, cold, wet, or windy it might be!

Date:

Astronomy

Oct. 18, 2013 Rise Set
Actual Time 7:22 AM EDT 6:14 PM EDT
Civil Twilight 6:53 AM EDT 6:44 PM EDT
Nautical Twilight 6:19 AM EDT 7:17 PM EDT
Astronomical Twilight 5:46 AM EDT 7:50 PM EDT
Moon 6:02 PM EDT (10/18) 6:55 AM EDT (10/18)
Length of Visible Light 11h 50m
Length of Day
10h 52m
Full, 100% of the Moon is Illuminated
Oct 18
Full
Oct 18
Full
Oct 26
Last Quarter
Nov 3
New
Nov 10
First Quarter

Hourly Weather History & Observations

Time (EDT) Temp. Dew Point Humidity Pressure Visibility Wind Dir Wind Speed Gust Speed Precip Events Conditions
12:56 AM 52.0 °F 51.1 °F 97% 29.66 in 4.0 mi Calm Calm - N/A   Overcast
1:56 AM 52.0 °F 51.1 °F 97% 29.68 in 3.0 mi Calm Calm - N/A   Overcast
2:00 AM 51.8 °F 51.8 °F 100% 29.69 in 1.8 mi Calm Calm - N/A   Overcast
2:08 AM 51.8 °F 51.8 °F 100% 29.69 in 0.8 mi Calm Calm - N/A   Overcast
2:15 AM 51.8 °F 51.8 °F 100% 29.69 in 1.0 mi Calm Calm - N/A   Overcast
2:22 AM 51.8 °F 51.8 °F 100% 29.69 in 3.0 mi Calm Calm - N/A   Overcast
2:56 AM 53.1 °F 51.1 °F 93% 29.68 in 6.0 mi Calm Calm - 0.00 in Rain Light Rain
3:19 AM 53.6 °F 51.8 °F 94% 29.68 in 6.0 mi Calm Calm - 0.02 in Rain Light Rain
3:30 AM 53.6 °F 51.8 °F 94% 29.68 in 9.0 mi South 6.9 mph - 0.02 in Rain Light Rain
3:34 AM 53.6 °F 51.8 °F 94% 29.67 in 7.0 mi South 3.5 mph - 0.03 in Rain Light Rain
3:42 AM 53.6 °F 51.8 °F 94% 29.67 in 2.5 mi Variable 3.5 mph - 0.07 in Rain Rain
3:56 AM 54.0 °F 52.0 °F 93% 29.67 in 10.0 mi Calm Calm - 0.10 in Rain Light Rain
4:14 AM 55.4 °F 51.8 °F 88% 29.68 in 10.0 mi West 8.1 mph 16.1 mph 0.01 in Rain Light Rain
4:21 AM 55.4 °F 51.8 °F 88% 29.68 in 10.0 mi WSW 5.8 mph - 0.01 in Rain Light Rain
4:56 AM 55.0 °F 51.1 °F 86% 29.68 in 10.0 mi SW 11.5 mph 16.1 mph 0.02 in   Overcast
5:56 AM 55.9 °F 50.0 °F 80% 29.68 in 8.0 mi SW 13.8 mph 28.8 mph 0.01 in Rain Light Rain
6:08 AM 55.4 °F 51.8 °F 88% 29.69 in 7.0 mi WSW 20.7 mph 32.2 mph 0.01 in Rain Light Rain
6:36 AM 55.4 °F 51.8 °F 88% 29.70 in 10.0 mi WSW 11.5 mph 20.7 mph 0.04 in Rain Light Rain
6:56 AM 55.0 °F 48.9 °F 80% 29.70 in 10.0 mi West 16.1 mph 23.0 mph 0.04 in   Overcast
7:56 AM 53.1 °F 48.0 °F 83% 29.74 in 10.0 mi West 13.8 mph - N/A   Mostly Cloudy
8:56 AM 55.0 °F 48.0 °F 77% 29.76 in 10.0 mi West 12.7 mph - N/A   Clear
9:56 AM 55.9 °F 48.0 °F 75% 29.78 in 10.0 mi West 12.7 mph - N/A   Mostly Cloudy
10:56 AM 55.9 °F 48.0 °F 75% 29.81 in 10.0 mi West 11.5 mph - N/A   Overcast
11:56 AM 59.0 °F 46.0 °F 62% 29.80 in 10.0 mi West 19.6 mph 24.2 mph N/A   Scattered Clouds
12:56 PM 59.0 °F 46.9 °F 64% 29.81 in 10.0 mi WSW 16.1 mph 24.2 mph N/A   Mostly Cloudy
1:56 PM 59.0 °F 41.0 °F 51% 29.82 in 10.0 mi SW 19.6 mph 28.8 mph N/A   Partly Cloudy
2:56 PM 57.0 °F 43.0 °F 59% 29.83 in 10.0 mi WSW 18.4 mph 29.9 mph N/A   Mostly Cloudy
3:56 PM 55.9 °F 43.0 °F 62% 29.84 in 10.0 mi WSW 16.1 mph 26.5 mph N/A   Mostly Cloudy
4:56 PM 55.9 °F 39.0 °F 53% 29.84 in 10.0 mi WSW 17.3 mph 31.1 mph N/A   Scattered Clouds
5:56 PM 55.9 °F 41.0 °F 57% 29.85 in 10.0 mi WSW 11.5 mph 25.3 mph N/A   Mostly Cloudy
6:56 PM 55.9 °F 41.0 °F 57% 29.86 in 10.0 mi WSW 13.8 mph 21.9 mph N/A   Mostly Cloudy
7:56 PM 55.9 °F 43.0 °F 62% 29.87 in 10.0 mi WSW 11.5 mph - N/A   Mostly Cloudy
8:56 PM 57.0 °F 42.1 °F 57% 29.87 in 10.0 mi WSW 10.4 mph 19.6 mph N/A   Partly Cloudy
9:56 PM 57.0 °F 43.0 °F 59% 29.88 in 10.0 mi SW 8.1 mph - N/A   Mostly Cloudy
10:56 PM 51.1 °F 42.1 °F 71% 29.89 in 10.0 mi South 4.6 mph - N/A   Partly Cloudy
11:56 PM 50.0 °F 42.1 °F 74% 29.88 in 10.0 mi South 3.5 mph - N/A   Clear